Date,TemperatureHighF,TemperatureAvgF,TemperatureLowF,DewpointHighF,DewpointAvgF,DewpointLowF,HumidityHigh,HumidityAvg,HumidityLow,PressureMaxIn,PressureMinIn,WindSpeedMaxMPH,WindSpeedAvgMPH,GustSpeedMaxMPH,PrecipitationSumIn
2013-6-1,91.0,74.9,60.0,69.0,63.4,59.0,97,71,40,30.05,29.91,3,1,12,0.00
2013-6-2,80.0,71.6,67.0,70.0,65.4,-99.9,97,84,68,29.94,29.84,1,0,0,0.00
2013-6-3,81.0,71.1,64.0,67.0,63.4,59.0,98,79,51,29.94,29.82,5,1,0,0.00
2013-6-4,82.0,68.4,57.0,64.0,59.4,55.0,94,76,47,30.07,29.94,3,0,0,0.00
2013-6-5,74.0,65.6,59.0,65.0,61.1,55.0,98,86,66,30.12,30.00,2,0,0,0.00
2013-6-6,66.0,63.1,60.0,65.0,62.2,59.0,99,97,93,30.01,29.80,1,0,0,0.00
2013-6-7,75.0,67.3,64.0,71.0,65.2,60.0,100,93,78,29.82,29.59,3,0,0,0.00
2013-6-8,86.0,71.0,61.0,67.0,61.9,57.0,96,75,45,30.05,29.79,3,0,0,0.00
2013-6-9,88.0,71.9,64.0,70.0,65.9,63.0,97,83,52,30.12,29.98,2,0,0,0.00
2013-6-10,83.0,70.1,65.0,74.0,68.1,64.0,99,94,63,30.03,29.80,4,0,15,0.00
2013-6-11,84.0,70.4,63.0,66.0,63.7,62.0,98,81,51,29.91,29.83,3,1,12,0.00
2013-6-12,91.0,71.9,67.0,71.0,64.8,62.0,87,79,50,29.91,29.81,2,1,0,0.00
2013-6-13,84.0,77.3,66.0,72.0,69.4,65.0,95,78,63,29.67,29.54,5,2,0,0.00
2013-6-14,80.0,71.8,62.0,59.0,56.4,55.0,82,59,45,30.00,29.88,4,1,0,0.00
2013-6-15,82.0,65.3,57.0,62.0,57.7,54.0,92,78,41,30.10,30.00,4,1,0,0.00
2013-6-16,84.0,70.2,60.0,68.0,61.9,57.0,91,77,55,30.03,29.93,5,1,0,0.00
2013-6-17,88.0,74.6,66.0,72.0,67.2,63.0,96,80,50,29.98,29.85,6,1,15,0.00
2013-6-18,73.0,72.3,71.0,67.0,66.3,66.0,87,82,79,29.80,29.79,0,0,0,0.00
2013-6-19,81.0,74.8,65.0,69.0,65.8,63.0,93,74,62,30.01,29.97,3,1,0,0.00
2013-6-22,86.0,79.0,73.0,67.0,64.7,63.0,75,62,47,30.20,30.09,1,0,0,0.00
2013-6-23,87.0,73.0,66.0,70.0,67.4,64.0,97,84,48,30.16,30.05,4,1,0,0.00
2013-6-24,90.0,72.2,67.0,71.0,68.0,65.0,95,87,54,30.14,30.02,4,0,0,0.00
2013-6-25,88.0,76.7,68.0,72.0,68.9,66.0,94,78,56,30.06,29.92,3,1,0,0.00
2013-6-26,90.0,73.8,68.0,73.0,68.3,65.0,98,84,53,29.96,29.84,6,1,16,0.00
2013-6-27,84.0,71.9,67.0,71.0,67.8,66.0,99,88,64,29.87,29.67,6,1,12,0.00
2013-6-28,90.0,78.7,71.0,71.0,67.4,62.0,90,71,42,29.69,29.47,6,2,13,0.00
2013-6-29,88.0,73.0,66.0,70.0,65.5,62.0,96,79,45,29.67,29.54,4,1,0,0.00
2013-6-30,87.0,71.7,65.0,72.0,67.7,64.0,97,88,59,29.80,29.66,2,0,0,0.00